Regional Weather Roundup
Issued by NWS Midland/Odessa, TX

Skip options and go directly to product.
Home | Oldest Version | Next Version | Current Version | All | Text Only | Save Text | Print | Product List | Glossary On

Skip product version selection by date and time.   
297
ASUS44 KMAF 280701
RWRMAF
MIDLAND AREA WEATHER ROUNDUP
NATIONAL WEATHER SERVICE MIDLAND TX
200 AM CDT FRI AUG 28 2015

...IN SOUTHWEST TEXAS AND SOUTHEAST NEW MEXICO...

CITY           SKY/WX    TMP DP  RH WIND       PRES   REMARKS
ALPINE         PTCLDY    74  53  47 SW5       30.20F
ANDREWS        FAIR      78  54  43 S12       30.05S
ARTESIA        CLEAR     75  55  50 S8        30.06F
BIG SPRING     CLEAR     75  53  45 SE9       30.05S
CARLSBAD       CLEAR     79  48  33 S10       30.03F
DRYDEN           N/A     82  58  43 S8        30.02S
FORT STOCKTON  PTCLDY    79  55  43 S15       30.05F
GUAD PASS      MOCLDY    73  46  38 E13       30.20F
HOBBS            N/A     75  50  41 S12       30.09R
MARFA          MOCLDY    66  52  59 N3        30.20S
MIDLAND AIRPK  PTCLDY    82  54  37 S12       30.04S
MIDLAND INTL   CLEAR     79  55  43 S10       30.04S
ODESSA         CLEAR     80  54  40 S13       30.05S
PECOS          CLEAR     81  54  39 SE9       30.02S
PRESIDIO       NOT AVBL
SEMINOLE       CLEAR     74  52  45 S7        30.07S
SNYDER         CLEAR     80  60  51 SE13      30.02S
WINK           CLEAR     81  53  37 S9        30.02S
$$
...OTHER STATIONS IN TEXAS...

CITY           SKY/WX    TMP DP  RH WIND       PRES   REMARKS
ABILENE        CLEAR     77  61  57 S13       30.00F
AMARILLO       MOCLDY    74  54  49 S9        30.04S
AUSTIN         CLEAR     67  62  84 CALM      30.00F
BROWNSVILLE    MOCLDY    76  69  79 CALM      29.98F
CORPUS CHRISTI MOCLDY    72  64  76 S3        29.99F
DALLAS FTW     PTCLDY    74  61  63 S6        29.99F
DEL RIO        CLEAR     80  59  48 E7        29.98S
EL PASO        PTCLDY    78  57  48 E6        30.06F
HOUSTON INT    MOCLDY    72  67  84 CALM      29.99F
LUBBOCK        PTCLDY    77  52  41 S12       30.03S
SAN ANGELO     CLEAR     79  59  50 S8        30.01F
SAN ANTONIO    CLEAR     78  63  59 S8        30.02F
WACO           CLEAR     75  60  59 SE7       30.00F
WICHITA FALLS  NOT AVBL
$$
...OTHER LOCATIONS IN NEW MEXICO...

CITY           SKY/WX    TMP DP  RH WIND       PRES   REMARKS
ALAMAGORDO     MOCLDY    75  54  46 E7        30.11S
ALBUQUERQUE    MOCLDY    67  53  61 SE7       30.20F
CANNON AFB     PTCLDY    70  59  66 W5        30.10R
CLOVIS         PTCLDY    66  57  72 SW7       30.10S
HOLLOMAN AFB   PTCLDY    73  59  60 SE3       30.08S
ROSWELL        PTCLDY    75  56  51 W6        30.06S
RUIDOSO        MOCLDY    59  52  77 MISG      30.32S
SANTA FE       PTCLDY    63  50  62 N5        30.25S
TRUTH OR CONSE MOCLDY    74  56  53 W9        30.16S
TUCUMCARI      PTCLDY    73  55  53 SW12      30.03S
$$

USA.gov is the U.S. government's official web portal to all federal, state and local government web resources and services.